Weather observations for the past three days for
Greensboro, Piedmont Triad International Airport
Metric (Imperial)
Date Time (edt) Wind (kph) Vis. (km) Weather Sky Cond. Temperature (ºC) Relative Humidity Wind Chill (°C) Heat Index (°C) Pressure Precipitation (cm)
Air Dwpt 6 hour altimeter (cm) sea level (mb) 1 hr 3 hr 6 hr
Max. Min.
02 18:54 S 6 16.09 Mostly Cloudy BKN080 BKN180 BKN250 13.9 1.1 42% 75.9 1011.5
02 17:54 Vrbl 7 16.09 Mostly Cloudy FEW075 SCT180 BKN250 15 1.1 39% 75.84 1010.8
02 16:54 Vrbl 6 16.09 Mostly Cloudy FEW070 SCT150 BKN250 15 0.6 38% 75.84 1010.8
02 15:54 E 7 16.09 Overcast SCT070 BKN150 OVC250 13.3 -0.6 39% 75.92 1011.7
02 14:54 N 13 16.09 Overcast BKN065 BKN140 OVC250 13.3 -1.1 37% 75.97 1012.4
02 13:54 N 11 16.09 Mostly Cloudy BKN060 12.2 -0.6 13.3 11.1 42% 75.97 1012.6
02 12:54 N 13 16.09 Overcast OVC060 12.2 0.6 45% 76.02 1013.2
02 11:54 N 9 16.09 Overcast OVC060 11.7 1.1 48% 76.1 1014.3
02 10:54 N 15 16.09 Overcast OVC055 11.7 1.1 48% 76.07 1013.8
02 09:54 N 13 16.09 Overcast OVC055 11.7 2.8 55% 76.05 1013.7
02 08:54 N 11 16.09 Overcast BKN050 BKN070 OVC110 11.7 3.9 59% 76.05 1013.5
02 07:54 N 13 16.09 Overcast BKN049 BKN075 OVC110 11.7 4.4 12.2 11.1 61% 76 1012.9
02 06:54 N 11 16.09 Overcast BKN049 BKN070 BKN110 OVC140 11.7 5.6 66% 75.97 1012.5
02 05:54 NE 7 16.09 Overcast FEW032 BKN080 BKN110 OVC140 11.7 6.1 69% 76 1012.7
02 04:54 N 7 16.09 Overcast FEW032 BKN110 OVC150 12.2 7.2 72% 75.97 1012.2
02 03:54 Calm 16.09 Overcast SCT120 OVC150 11.7 8.9 83% 75.92 1011.7
02 02:54 Calm 16.09 Overcast OVC140 11.7 8.3 80% 75.92 1011.5
02 01:54 N 11 16.09 Overcast OVC160 11.7 8.3 15 11.1 80% 75.97 1012.4
02 00:54 SW 7 16.09 Overcast BKN180 OVC250 11.7 8.3 80% 75.95 1012.0
01 23:54 SW 9 16.09 Overcast OVC250 11.7 8.3 80% 75.95 1012.2
01 22:54 S 11 16.09 Overcast BKN190 OVC250 12.2 8.3 77% 75.97 1012.5
01 21:54 S 15 16.09 Overcast BKN190 OVC250 12.8 8.9 77% 75.97 1012.6
01 20:54 S 20 16.09 Overcast BKN190 OVC250 13.9 8.3 69% 75.95 1012.2
01 19:54 S 19 16.09 Mostly Cloudy SCT150 BKN250 15 7.2 20 15 60% 75.87 1011.0
01 18:54 S 19 16.09 Mostly Cloudy FEW055 SCT150 BKN250 17.2 7.2 52% 75.84 1010.9
01 17:54 SW 17 16.09 Mostly Cloudy FEW055 FEW150 BKN250 18.3 6.7 47% 75.87 1011.1
01 16:54 S 22 G 33 16.09 Mostly Cloudy FEW055 FEW150 BKN250 19.4 6.1 42% 75.87 1011.1
01 15:54 S 15 G 30 16.09 Overcast FEW055 FEW150 OVC250 19.4 5 39% 75.95 1011.9
01 14:54 S 9 16.09 Mostly Cloudy FEW055 FEW150 BKN250 18.3 3.9 39% 76.02 1013.0
01 13:54 W 13 16.09 Mostly Cloudy FEW055 SCT080 SCT150 BKN250 17.8 3.9 17.8 10 40% 76.07 1013.7
01 12:54 S 11 16.09 Mostly Cloudy SCT060 BKN140 BKN250 15 3.3 46% 76.12 1014.5
01 11:54 Vrbl 9 16.09 Overcast BKN065 BKN130 OVC250 15 2.8 44% 76.17 1015.3
01 10:54 SE 15 16.09 Mostly Cloudy BKN070 BKN110 BKN250 13.9 3.3 49% 76.2 1015.7
01 09:54 E 13 G 30 16.09 Mostly Cloudy FEW070 SCT110 BKN250 12.2 2.8 53% 76.2 1015.4
01 08:54 E 13 16.09 Mostly Cloudy BKN100 BKN250 11.1 3.3 59% 76.2 1015.4
01 07:54 E 7 16.09 Overcast BKN110 OVC250 10 2.2 10.6 8.9 59% 9 76.23 1015.7
01 06:54 E 13 16.09 Overcast SCT090 BKN120 OVC250 8.9 2.8 66% 7 76.15 1014.7
01 05:54 E 7 16.09 Mostly Cloudy BKN085 BKN250 8.9 2.2 63% 8 76.12 1014.3
01 04:54 NE 9 16.09 Mostly Cloudy BKN090 BKN250 9.4 2.8 64% 8 76.12 1014.3
01 03:54 NE 7 16.09 Mostly Cloudy BKN095 BKN250 10 2.2 59% 9 76.12 1014.2
01 02:54 NE 9 16.09 Mostly Cloudy BKN100 BKN250 10 2.2 59% 9 76.1 1014.0
01 01:54 N 6 16.09 Partly Cloudy SCT080 SCT250 10 2.2 19.4 10 59% 76.1 1014.0
01 00:54 NE 6 16.09 A Few Clouds FEW075 FEW250 11.1 2.2 55% 76.07 1013.8
30 23:54 N 9 16.09 A Few Clouds FEW250 12.2 1.7 49% 76.02 1013.0
30 22:54 NE 6 16.09 A Few Clouds FEW080 FEW250 13.9 1.1 42% 76 1012.7
30 21:54 NE 6 16.09 A Few Clouds FEW075 FEW250 15 1.1 39% 75.95 1012.1
30 20:54 N 13 16.09 A Few Clouds FEW075 FEW250 16.1 1.7 38% 75.87 1010.9
30 19:54 NW 9 16.09 Partly Cloudy FEW075 SCT250 19.4 0.6 23.3 19.4 29% 75.79 1009.9
30 18:54 N 15 G 30 16.09 Partly Cloudy FEW075 SCT250 21.1 0 25% 75.74 1009.2
30 17:54 NW 20 G 35 16.09 A Few Clouds FEW075 FEW250 22.2 1.1 25% 75.72 1008.7
30 16:54 NW 28 G 37 16.09 Partly Cloudy SCT075 SCT250 23.3 2.8 26% 75.69 1008.3
30 15:54 Vrbl 9 16.09 Mostly Cloudy SCT065 BKN250 22.8 6.1 34% 75.72 1008.6
30 14:54 NW 19 G 37 16.09 Mostly Cloudy BKN055 BKN150 22.2 6.1 35% 75.72 1008.7
30 13:54 NW 19 G 33 16.09 Mostly Cloudy BKN048 BKN140 21.7 8.3 21.7 13.9 42% 75.72 1008.8
30 12:54 N 13 G 33 16.09 Partly Cloudy SCT045 SCT130 20 8.3 47% 75.77 1009.3
30 11:54 N 20 16.09 A Few Clouds FEW045 FEW070 FEW130 18.9 7.2 47% 75.82 1010.1
30 10:54 NW 7 16.09 Mostly Cloudy FEW025 SCT065 BKN120 BKN250 16.7 9.4 62% 75.84 1010.5
30 09:54 Calm 16.09 Mostly Cloudy FEW020 FEW050 BKN120 15 10 72% 75.87 1010.8
30 08:54 NW 6 16.09 Overcast FEW050 OVC110 14.4 10 75% 75.9 1011.1
30 07:54 Calm 16.09 Overcast FEW045 OVC120 13.9 10 16.1 11.7 78% 75.84 1010.4
30 06:54 N 7 16.09 Overcast FEW050 OVC170 12.8 10 83% 75.74 1009.1
30 05:54 Calm 16.09 Mostly Cloudy BKN190 13.3 10 81% 75.72 1008.8
30 04:54 Calm 16.09 Mostly Cloudy BKN250 12.8 10 83% 75.74 1009.0
30 03:54 N 7 16.09 Mostly Cloudy BKN250 15 10.6 75% 75.69 1008.2
30 02:54 Calm 16.09 Mostly Cloudy BKN250 15.6 13.3 86% 75.67 1008.1
30 01:54 W 6 16.09 Mostly Cloudy BKN250 15.6 13.9 22.2 15 90% 75.74 1009.1
30 00:54 Calm 16.09 Mostly Cloudy FEW055 BKN250 15.6 15 96% 75.72 1008.9
29 23:54 N 6 16.09 Mostly Cloudy FEW055 FEW080 BKN250 16.7 16.1 96% 75.72 1008.9
29 22:54 NW 11 16.09 Mostly Cloudy BKN055 BKN080 18.3 15.6 84% 75.72 1008.9
29 21:54 N 15 G 30 16.09 Thunderstorm BKN049CB BKN070 19.4 16.1 81% 75.72 1008.5
29 20:54 SW 9 16.09 Mostly Cloudy FEW050 BKN250 18.9 16.1 84% 75.59 1007.1
29 19:54 S 9 16.09 Mostly Cloudy SCT055 BKN250 21.7 16.1 23.3 17.2 71% 75.57 1006.7
Date Time (edt) Wind (kph) Vis. (km) Weather Sky Cond. Air Dwpt Max. Min. Relative Humidity Wind Chill (°C) Heat Index (°C) altimeter (cm) sea level (mb) 1 hr 3 hr 6 hr
6 hour
Temperature (ºC) Pressure Precipitation (cm)